Weather in Tolka

Russia / Yamalo-Nenets Autonomous Okrug     64°03′55″N   81°07′48″E
temp.,
°C
wind,
m/s
gust,
m/s
humid.,
%
clouds,
%
prec.,
mm/h
press.,
hPa
HPBL,
m
27 february, sat
sat2723:00−31w339897 0.1 102481
02:00−31wsw3598100 0.1 1024130
05:00−30wsw3398100 0.2 102558
08:00−29wsw3398100 0.1 1023131
11:00−26wsw2391100 0.1 1024296
14:00−24w2288100 0.1 1023375
17:00−28n11100100 0.1 102419
20:00−30nne1110096 0.0 102519
28 february, sun
sun2823:00−32ene1110085 0.1 102519
02:00−33ese1110068 0.0 102619
05:00−34ese2210047 0.0 102819
08:00−33se23996 0.0 102819
11:00−28se339110 0.0 1028211
14:00−25se338965 0.0 1029257
17:00−30ese449743 0.0 102920
20:00−31se44970 0.0 102921
1 march, mon
mon123:00−31se341000 0.0 102919
02:00−32se341005 0.0 102820
05:00−32se341003 0.0 102820
08:00−31se34970 0.0 102840
11:00−26se34910 0.0 1027208
14:00−24se459150 0.0 1025235
17:00−27se459545 0.0 102535
20:00−27se459598 0.0 102544
2 march, tue
tue223:00−27sse459599 0.0 102436
02:00−28s3492100 0.0 102419
05:00−28sse4489100 0.0 102429
08:00−28sse459092 0.0 102476
11:00−23sse568871 0.0 1024248
14:00−20sse568784 0.0 1023321
17:00−23se569290 0.0 102360
20:00−25sse6887100 0.0 1023103
3 march, wed
wed323:00−26sse6884100 0.0 102397
02:00−28se568764 0.0 102245
05:00−28sse568933 0.0 102361
08:00−27se6108984 0.0 1022156
11:00−21sse7118491 0.0 1022338
14:00−18sse71081100 0.0 1022462
17:00−21se6986100 0.0 1021107
20:00−23sse698894 0.0 1021127